Regional Weather Roundup
Issued by NWS

Home | Current Version | Previous Version | Text Only | Print | Product List | Glossary Off
Versions: 1 2 3 4 5 6 7 8 9 10 11 12 13 14 15 16 17 18 19 20 21 22 23 24 25 26 27 28 29 30 31 32 33 34 35 36 37 38 39 40 41 42 43 44 45 46 47 48 49 50

000
ASUS43 KFSD 251902
RWRSD

WEATHER ROUNDUP FOR SOUTH DAKOTA
NATIONAL WEATHER SERVICE SIOUX FALLS SD
200 PM CDT FRI JUL 25 2014

NOTE: "FAIR" INDICATES FEW OR NO CLOUDS BELOW 12,000 FEET WITH NO
SIGNIFICANT WEATHER AND/OR OBSTRUCTIONS TO VISIBILITY.


SDZ001>005-009-010-012>017-252000-
NORTHWEST AND NORTH CENTRAL SOUTH DAKOTA

CITY           SKY/WX    TMP DP  RH WIND       PRES   REMARKS
BUFFALO          N/A     78  42  27 NW8       29.87F
FAITH            N/A     80  43  26 N10       29.91F
MOBRIDGE       SUNNY     82  48  30 N14       29.83F
$$

SDZ012>016-024>037-041>051-057-063-072>074-252000-
SOUTHWEST AND SOUTH CENTRAL SOUTH DAKOTA

CITY           SKY/WX    TMP DP  RH WIND       PRES   REMARKS
RAPID CTY ARPT SUNNY     77  45  32 VRB3      29.96F
PIERRE         SUNNY     85  50  29 N14G23    29.83F
CUSTER         SUNNY     73  44  35 VRB6      30.09S
ELLSWORTH AFB  SUNNY     77  44  30 VRB6      29.96F
PHILIP         SUNNY     86  42  21 N14       29.89F
PINE RIDGE     SUNNY     79  48  33 NE9       29.97F
WINNER         FAIR      91  67  44 N12G20    29.84S
$$

SDZ004>011-016>023-039-040-252000-
NORTHEAST SOUTH DAKOTA

CITY           SKY/WX    TMP DP  RH WIND       PRES   REMARKS
ABERDEEN       CLOUDY    73  67  81 N9        29.81S
WATERTOWN      CLOUDY    78  67  68 NW10      29.79R
SISSETON         N/A     73  69  87 NW15      29.77R
$$

SDZ017-020-022-023-036>040-048>070-252000-
SOUTHEAST SOUTH DAKOTA

CITY           SKY/WX    TMP DP  RH WIND       PRES   REMARKS
SIOUX FALLS    CLOUDY    80  70  71 CALM      29.79R
HURON          MOSUNNY   80  68  66 N12       29.79R
CHAMBERLAIN    SUNNY     86  69  56 N15G22    29.81S
MITCHELL       SUNNY     86  69  56 NW9       29.78R
YANKTON        PTSUNNY   82  72  69 N3        29.77S
$$

ABBREVIATIONS USED IN REMARKS
   TC - TEMPERATURE IN CELSIUS
  WCI - WIND CHILL INDEX
   HX - HEAT INDEX
  VSB - VISIBILITY




USA.gov is the U.S. government's official web portal to all federal, state and local government web resources and services.